Date,TemperatureHighF,TemperatureAvgF,TemperatureLowF,DewpointHighF,DewpointAvgF,DewpointLowF,HumidityHigh,HumidityAvg,HumidityLow,PressureMaxIn,PressureMinIn,WindSpeedMaxMPH,WindSpeedAvgMPH,GustSpeedMaxMPH,PrecipitationSumIn
2013-10-1,64.0,61.2,58.0,61.0,60.2,58.0,99,96,89,30.35,30.32,3,2,6,0.00
2013-10-2,85.0,62.6,53.0,63.0,58.0,52.0,99,88,40,30.40,30.33,7,2,49,0.00
2013-10-3,88.0,68.3,57.0,64.0,59.7,57.0,99,79,38,30.40,30.33,8,3,44,0.00
2013-10-4,88.0,67.0,56.0,65.0,60.7,56.0,99,84,38,30.41,30.34,5,3,35,0.00
2013-10-5,91.0,69.9,59.0,67.0,62.3,59.0,99,82,37,30.39,30.30,5,2,39,0.00
2013-10-6,85.0,70.4,60.0,67.0,63.2,60.0,99,81,48,30.32,30.18,10,5,58,0.00
2013-10-7,75.0,69.9,62.0,71.0,64.9,52.0,99,85,65,30.26,30.08,12,7,60,0.83
2013-10-8,65.0,60.7,55.0,53.0,45.9,43.0,72,59,46,30.47,30.26,19,9,46,0.04
2013-10-9,71.0,59.5,50.0,51.0,47.1,42.0,87,65,47,30.47,30.39,12,8,52,0.00
2013-10-10,70.0,61.5,53.0,61.0,54.2,46.0,87,77,67,30.39,30.23,10,6,70,0.00
2013-10-11,74.0,67.0,61.0,63.0,59.4,56.0,93,78,55,30.24,30.18,9,4,50,0.00
2013-10-12,75.0,65.5,55.0,63.0,60.2,55.0,99,84,60,30.35,30.22,9,4,55,0.00
2013-10-13,70.0,63.2,60.0,64.0,59.5,-99.9,99,90,76,30.48,30.35,10,6,48,0.01
2013-10-14,68.0,62.3,58.0,60.0,58.8,56.0,99,88,75,30.51,30.43,10,8,44,0.02
2013-10-15,78.0,61.5,52.0,57.0,53.8,50.0,99,79,38,30.48,30.32,9,5,44,0.01
2013-10-16,77.0,63.8,55.0,61.0,56.4,52.0,99,79,51,30.34,30.22,5,3,39,0.01
2013-10-17,70.0,64.0,58.0,66.0,61.8,58.0,99,92,74,30.23,30.11,6,4,52,0.04
2013-10-18,73.0,61.3,52.0,64.0,53.8,47.0,99,80,43,30.30,30.15,7,4,35,0.04
2013-10-19,63.0,57.2,52.0,61.0,56.1,52.0,99,96,87,30.24,30.10,5,3,40,0.02
2013-10-20,67.0,49.6,41.0,52.0,40.2,-99.9,99,78,27,30.36,30.17,8,4,45,0.01
2013-10-21,73.0,50.0,36.0,51.0,43.2,35.0,99,82,41,30.40,30.26,6,3,49,0.00
2013-10-22,72.0,59.5,51.0,59.0,53.7,49.0,99,83,49,30.26,30.06,7,4,46,0.00
2013-10-23,66.0,56.4,44.0,58.0,43.2,28.0,99,67,28,30.27,29.97,20,8,38,0.00
2013-10-24,60.0,45.2,32.0,34.0,30.0,27.0,96,60,28,30.42,30.27,11,5,25,0.00
2013-10-25,55.0,43.7,35.0,33.0,27.4,22.0,77,55,28,30.62,30.42,12,6,24,0.00
2013-10-26,62.0,39.3,27.0,32.0,26.3,23.0,96,66,23,30.62,30.32,9,4,21,0.00
2013-10-27,73.0,48.4,37.0,45.0,35.4,-99.9,96,67,25,30.36,30.30,8,4,18,0.00
2013-10-28,53.0,46.7,43.0,48.0,41.5,-99.9,97,88,65,30.51,30.36,4,2,42,0.00
2013-10-29,68.0,51.7,46.0,48.0,42.0,-99.9,94,78,56,30.57,30.50,5,3,12,0.00
2013-10-30,80.0,60.7,50.0,47.0,-26.2,-99.9,79,38,63,30.53,30.42,9,4,31,0.00
2013-10-31,71.0,69.1,66.0,-99.9,-99.9,-99.9,0,0,100,30.40,30.33,7,6,76,0.00